Regional Weather Roundup
Issued by NWS

Home | Current Version | Previous Version | Text Only | Print | Product List | Glossary On
Versions: 1 2 3 4 5 6 7 8 9 10 11 12 13 14 15 16 17 18 19 20 21 22 23 24 25 26 27 28 29 30 31 32 33 34 35 36 37 38 39 40 41 42 43 44 45 46 47 48 49 50
000
ASUS43 KTOP 221259
RWRKS

WEATHER ROUNDUP FOR KANSAS
NATIONAL WEATHER SERVICE GOODLAND KS
700 AM CST MON DEC 22 2014

NOTE:  "FAIR" INDICATES FEW OR NO CLOUDS BELOW 12,000 FEET WITH NO
SIGNIFICANT WEATHER AND/OR OBSTRUCTIONS TO VISIBILITY.

KSZ001>006-013>018-027>032-041>047-221400-
NORTHWEST KANSAS

CITY           SKY/WX    TMP DP  RH WIND       PRES   REMARKS
GOODLAND       PTCLDY    34  28  79 NW15      29.66R WCI  24
HAYS           MOCLDY    43  30  61 NW14      29.57R
HILL CITY      CLOUDY    41  31  67 NW16      29.60R
RUSSELL        CLOUDY    41  36  82 NW16      29.54R
$$

KSZ061>065-074>080-084>089-221400-
SOUTHWEST KANSAS

CITY           SKY/WX    TMP DP  RH WIND       PRES   REMARKS
DODGE CITY     CLOUDY    43  31  62 NW14G23   29.60R
ELKHART          N/A    N/A N/A N/A MISG        N/A
GARDEN CITY    CLOUDY    42  29  59 NW18      29.65R
GREAT BEND     CLOUDY    39  34  81 NW9       29.58R
LIBERAL        MOCLDY    41  32  70 NW16G24   29.67R
$$

KSZ066>073-081>083-090>101-221400-
SOUTHEAST KANSAS

CITY           SKY/WX    TMP DP  RH WIND       PRES   REMARKS
CHANUTE        CLOUDY    44  44 100 SE10      29.60F FOG
COFFEYVILLE    CLOUDY    45  45 100 SE6       29.61R FOG
HUTCHINSON     CLOUDY    44  43  96 S6        29.56R FOG
MEDICINE LODGE   N/A     44  44 100 CALM      29.56R
NEWTON         CLOUDY    43  39  87 SW8       29.58R
PARSONS        CLOUDY    45  45 100 SE5       29.61F FOG
WICHITA INTL   DRIZZLE   46  44  93 S5        29.57R FOG
WICHITA JABRA  CLOUDY    44  43  96 S8        29.56R
WICHITA MCCONL CLOUDY    44  44  98 S7        29.56R
WINFIELD       CLOUDY    45  45 100 SE8       29.57S FOG
$$

KSZ007>012-019>026-033>040-048>060-102>105-221400-
NORTHEAST KANSAS

CITY           SKY/WX    TMP DP  RH WIND       PRES   REMARKS
CONCORDIA      CLOUDY    44  43  96 SW9       29.51S
EMPORIA        CLOUDY    43  43 100 S13       29.56F FOG
LAWRENCE       CLOUDY    42  41  96 SE9       29.60S
MANHATTAN      LGT RAIN  44  43  96 SW7       29.54F
OLATHE IND     LGT RAIN  41  41 100 S10       29.61S FOG
OLATHE EXE     LGT RAIN  41  41 100 S10       29.60F FOG
SALINA         LGT RAIN  45  43  93 S7        29.54S
TOPEKA BILLARD LGT RAIN  45  43  93 SE9       29.58F
TOPEKA FORBES  CLOUDY    45  42  89 S12       29.57F FOG
$$


USA.gov is the U.S. government's official web portal to all federal, state and local government web resources and services.